Flag for U.S.A. Weather past 2 weeks in Riverside, California, U.S.A.

Now
60 °F

Clear.


Feels Like: 60 °F
Forecast: 57 / 89 °F
Wind: No wind

Location: Riverside Municipal Airport

Current Time: Oct 1, 2014 at 8:09:57 AM

Latest Report: Oct 1, 2014 at 6:53 AM


Visibility: 10 mi

Pressure: 29.78 "Hg

Humidity: 78%

Dew point: 53 °F

Location of RiversideLocation

Historic Weather in Riverside — Graph

°F

Riverside temperature yesterday

Maximum temperature yesterday: 89 °F (at 2:53 PM)
Minimum temperature yesterday: 59 °F (at 6:53 AM)
Average temperature yesterday: 74 °F

Past Weeks' High & Low Weather Summary

 TemperatureHumidityPressure
High107 °F (Sep 16, 1:53 PM)87% (Sep 22, 6:53 AM)30.00 "Hg (Sep 22, 6:53 AM)
Low58 °F (Sep 28, 5:53 AM)10% (Sep 25, 10:53 AM)29.64 "Hg (Sep 16, 2:53 PM)
Average76 °F55%29.83 "Hg
* Reported Sep 16 6:53 AM — Oct 1 6:53 AM, Riverside, Weather by CustomWeather, © 2014

Note: Actual official high and low records may vary slightly from our data, if they occured in-between our weather recording intervals... More about our weather records

Advertising

Riverside weather history for previous 24 hours

 ConditionsComfort  
Time TempWeatherWind HumidityBarometerVisibility
6:53 AM
Oct 1
60 °FClear.No wind78%29.78 "Hg10 mi
5:53 AM61 °FClear.No wind78%29.76 "Hg10 mi
4:53 AM61 °FClear.3 mph78%29.74 "Hg10 mi
3:53 AM63 °FClear.No wind73%29.73 "Hg10 mi
2:53 AM64 °FClear.No wind73%29.73 "Hg10 mi
1:53 AM65 °FClear.No wind68%29.74 "Hg10 mi
12:53 AM68 °FClear.No wind63%29.74 "Hg10 mi
11:53 PM
Sep 30
69 °FClear.No wind59%29.74 "Hg10 mi
10:53 PM71 °FClear.No wind57%29.74 "Hg10 mi
9:53 PM72 °FClear.No wind55%29.74 "Hg10 mi
8:53 PM74 °FClear.5 mph52%29.74 "Hg10 mi
7:53 PM77 °FClear.5 mph44%29.73 "Hg10 mi
6:53 PM80 °FSunny.7 mph36%29.72 "Hg10 mi
5:53 PM84 °FSunny.12 mph26%29.71 "Hg10 mi
4:53 PM87 °FSunny.15 mph23%29.71 "Hg10 mi
3:53 PM88 °FSunny.12 mph22%29.71 "Hg10 mi
2:53 PM89 °FSunny.9 mph20%29.72 "Hg10 mi
1:53 PM88 °FSunny.6 mph22%29.75 "Hg10 mi
12:53 PM87 °FSunny.7 mph21%29.79 "Hg10 mi
11:53 AM85 °FSunny.5 mph24%29.81 "Hg10 mi
10:53 AM81 °FSunny.No wind30%29.82 "Hg10 mi
9:53 AM76 °FSunny.No wind43%29.84 "Hg10 mi
8:53 AM70 °FSunny.No wind53%29.85 "Hg10 mi
Weather by CustomWeather, © 2014

See weather overviewHow to use our weather pages